COSMOS 1275 DEB, 12699

Orbit data source: Space-Track

COSMOS 1275 DEB, 12699 is space debris in LEO originally from a launch on Thu, 04 Jun 1981 UTC launched from the Plesetsk Missile And Space Complex (PKMTR). Debris objects in space refer to the collection of defunct objects orbiting the Earth. Examples of debris include non-operational satellites, rocket bodies, and fragments generated from explosions, collisions, or faulty payload assembly.

Loading next visibility...
Identifier
12699, 1981-053AT
Orbit
LEO
Country
Flag of CISCIS
Related business
Manufacturer
Unknown
Mission
Spacecraft
Bus & Motor
Unknown
Mass
Unknown
Launch date (UTC)
1981-06-04 (45 years ago)
Launch vehicle
Unknown
Launch site
Plesetsk Missile And Space Complex (PKMTR)
Object type
Payload
Rocket body
Debris
Shape & HBR
Unknown shape, 0.1 m
Radar Cross Section
Small (<0.1 m²)

Expand to show TLE details & history
Last TLE update: 1 day ago

TLE from 1 day ago
0 COSMOS 1275 DEB
1 12699U 81053AT  25348.80902662  .00001540  00000-0  13316-2 0  9995
2 12699  82.9462 104.3452 0086496 224.9030 263.1181 13.84092993219486
Epoch: 2025-12-14T19:24Z
TLE epoch observation values (Epoch: 2025-12-14T19:24:59.899Z)
Latitude
52.48853°
Longitude
-99.84837°
Altitude
966.07 km
Speed
7.37 km/s
True Right ascension
18h 20m 28s
True Declination
52° 19' 37"
Sunlit
Object was in daylight at epoch
Visualization orbit readout
Latitude
Unknown
Longitude
Unknown
Altitude
Unknown
Speed
Unknown
Apparent Right ascension
Unknown
Apparent Declination
Unknown
Sunlit
N/A
Visualization observer readout
Local Sidereal Time
19:02:34
Azimuth
Unknown
Elevation
Unknown
Doppler factor
Unknown
Orbital elements
Apogee altitude
1,009.896 km
Perigee altitude
883.185 km
Semi-major axis
7,324.678 km
Eccentricity
0.00865
Inclination
82.9462°
RAAN
104.3452°
Arg. of periapsis
224.903°
True anomaly
262.13539°
Mean anomaly
263.1181°
Eccentric anomaly
262.62661°
Mean motion
3.46227 °/min
Orbital period
103.98 mins
BSTAR
0.0013316
Loading maneuver chart data...
Computing Atmospheric mass density...
Loading historical data...
Loading historical data...
Loading historical data...
Loading historical data...
Loading historical data...
Loading historical data...
Loading historical data...

Documentation

Showing up to 5 results
|